Location: Bouillancy
(49.1149°N, 2.9308°E)
Time: 08:02:54
(UTC+00:00)

Cosmos 1300 Rocket - Pass Details

Date: 30 September 2020
Orbit: 601 x 627 km, 82.5° (Epoch: 29 October)

Event Time Altitude Azimuth Distance (km) Brightness Sun altitude
Rises 18:10:26 0° 195° (SSW) 2,895 7.1 -7.7°
Reaches altitude 10° 18:12:40 10° 198° (SSW) 1,995 6.4 -8.1°
Maximum altitude 18:17:04 68° 282° (WNW) 681 4.0 -8.8°
Drops below altitude 10° 18:21:32 10° 5° (N) 2,016 6.2 -9.5°
Sets 18:23:48 0° 8° (N) 2,927 7.0 -9.9°
